SWR4B LSZH-EDDF

Flight info

Callsign SWR4B
Flight time 0h 42m
Altitude 25000
Route DEGES5L DEGES Z1 SUDEN T164 KOVAN T163 SPESA SPESA5B
Aircraft A320/M-SDE3FGHIRWY/LB1

Departure

Time 2026-05-05 17:00
Airport Zürich Airport (LSZH)

Arrival

Time 2026-05-05 17:43
Airport Frankfurt Main Airport (EDDF)
Time Latitude Longitude Altitude Speed Heading
2026-05-05 16:42 47.45353 8.55647 1411 ft 0 kts
2026-05-05 16:52 47.45333 8.55644 1410 ft 4 kts 11°
2026-05-05 16:52 47.45307 8.55634 1407 ft 4 kts 20°
2026-05-05 16:52 47.45283 8.55618 1407 ft 4 kts 33°
2026-05-05 16:52 47.45266 8.55599 1407 ft 4 kts 39°
2026-05-05 16:53 47.45244 8.55579 1413 ft 4 kts 11°
2026-05-05 16:53 47.45219 8.55581 1406 ft 4 kts 332°
2026-05-05 16:53 47.45197 8.55603 1408 ft 4 kts 326°
2026-05-05 16:53 47.45188 8.55612 1409 ft 0 kts 335°
2026-05-05 16:55 47.45193 8.55608 1408 ft 3 kts 335°
2026-05-05 16:55 47.45229 8.55585 1407 ft 8 kts 340°
2026-05-05 16:55 47.45315 8.55552 1412 ft 17 kts 335°
2026-05-05 16:56 47.45424 8.55474 1412 ft 18 kts 334°
2026-05-05 16:56 47.45534 8.55399 1401 ft 17 kts 335°
2026-05-05 16:56 47.45644 8.55345 1401 ft 15 kts 14°
2026-05-05 16:56 47.45664 8.55493 1402 ft 17 kts 96°
2026-05-05 16:57 47.45653 8.55649 1405 ft 16 kts 95°
2026-05-05 16:57 47.45640 8.55835 1410 ft 20 kts 96°
2026-05-05 16:57 47.45625 8.56041 1410 ft 19 kts 96°
2026-05-05 16:57 47.45614 8.56207 1412 ft 11 kts 92°
2026-05-05 16:58 47.45674 8.56272 1414 ft 15 kts
2026-05-05 16:58 47.45770 8.56286 1418 ft 16 kts
2026-05-05 16:58 47.45912 8.56307 1413 ft 23 kts
2026-05-05 16:58 47.46050 8.56330 1411 ft 14 kts 11°
2026-05-05 16:59 47.46109 8.56391 1411 ft 8 kts 47°
2026-05-05 16:59 47.46139 8.56424 1414 ft 5 kts 11°
2026-05-05 16:59 47.46180 8.56377 1409 ft 15 kts 317°
2026-05-05 16:59 47.46435 8.56028 1400 ft 87 kts 318°
2026-05-05 17:00 47.47028 8.55219 1386 ft 146 kts 317°
2026-05-05 17:00 47.47834 8.54115 1814 ft 159 kts 314°
2026-05-05 17:00 47.48658 8.52980 2608 ft 162 kts 316°
2026-05-05 17:00 47.49610 8.52115 3302 ft 164 kts 329°
2026-05-05 17:01 47.50627 8.51355 4004 ft 164 kts 327°
2026-05-05 17:01 47.51642 8.50585 4702 ft 164 kts 326°
2026-05-05 17:01 47.52768 8.49927 5111 ft 188 kts 342°
2026-05-05 17:01 47.54170 8.49806 5439 ft 218 kts
2026-05-05 17:02 47.55699 8.50539 5811 ft 245 kts 30°
2026-05-05 17:02 47.56996 8.52243 6591 ft 254 kts 54°
2026-05-05 17:02 47.57739 8.54599 7391 ft 255 kts 81°
2026-05-05 17:02 47.57808 8.57206 8221 ft 254 kts 97°
2026-05-05 17:03 47.57709 8.59834 9041 ft 257 kts 97°
2026-05-05 17:03 47.57613 8.62497 9869 ft 261 kts 97°
2026-05-05 17:03 47.57522 8.65196 10637 ft 264 kts 96°
2026-05-05 17:03 47.57589 8.67996 11126 ft 287 kts 78°
2026-05-05 17:04 47.58520 8.70735 11425 ft 313 kts 47°
2026-05-05 17:04 47.60176 8.73009 11708 ft 337 kts 40°
2026-05-05 17:04 47.62023 8.75350 11966 ft 361 kts 39°
2026-05-05 17:04 47.64005 8.77827 12150 ft 384 kts 39°
2026-05-05 17:05 47.66083 8.80430 12625 ft 396 kts 39°
2026-05-05 17:05 47.68192 8.83100 13313 ft 402 kts 40°
2026-05-05 17:05 47.70328 8.85834 13976 ft 407 kts 40°
2026-05-05 17:05 47.72463 8.88585 14714 ft 408 kts 41°
2026-05-05 17:06 47.74578 8.91328 15404 ft 410 kts 41°
2026-05-05 17:06 47.76736 8.94128 16091 ft 413 kts 41°
2026-05-05 17:06 47.78912 8.96944 16769 ft 416 kts 41°
2026-05-05 17:06 47.81136 8.99816 17437 ft 419 kts 41°
2026-05-05 17:07 47.83347 9.02669 18106 ft 422 kts 41°
2026-05-05 17:07 47.85575 9.05542 18667 ft 426 kts 41°
2026-05-05 17:07 47.87820 9.08445 19206 ft 429 kts 41°
2026-05-05 17:07 47.90081 9.11374 19736 ft 433 kts 41°
2026-05-05 17:08 47.92356 9.14334 20278 ft 436 kts 42°
2026-05-05 17:08 47.94645 9.17329 20814 ft 439 kts 42°
2026-05-05 17:08 47.96920 9.20307 21312 ft 442 kts 42°
2026-05-05 17:08 47.99242 9.23344 21798 ft 445 kts 42°
2026-05-05 17:09 48.01578 9.26396 22265 ft 448 kts 42°
2026-05-05 17:09 48.03929 9.29471 22720 ft 450 kts 42°
2026-05-05 17:09 48.06294 9.32567 23168 ft 453 kts 42°
2026-05-05 17:09 48.08670 9.35684 23587 ft 455 kts 42°
2026-05-05 17:10 48.11060 9.38811 23949 ft 458 kts 41°
2026-05-05 17:10 48.13653 9.41611 24299 ft 462 kts 32°
2026-05-05 17:10 48.16523 9.43800 24597 ft 466 kts 22°
2026-05-05 17:10 48.19608 9.45319 24792 ft 468 kts 13°
2026-05-05 17:11 48.22847 9.46107 24838 ft 477 kts
2026-05-05 17:11 48.26185 9.46209 24842 ft 481 kts 359°
2026-05-05 17:11 48.29533 9.46192 24835 ft 481 kts 359°
2026-05-05 17:11 48.32885 9.46184 24836 ft 481 kts 359°
2026-05-05 17:12 48.36235 9.46187 24836 ft 481 kts 359°
2026-05-05 17:12 48.39582 9.46195 24835 ft 481 kts 359°
2026-05-05 17:12 48.41800 9.46203 24835 ft 481 kts 359°
2026-05-05 17:12 48.45145 9.45989 24831 ft 480 kts 352°
2026-05-05 17:13 48.48401 9.44919 24830 ft 479 kts 341°
2026-05-05 17:13 48.51462 9.43009 24829 ft 476 kts 330°
2026-05-05 17:13 48.54251 9.40342 24828 ft 473 kts 320°
2026-05-05 17:13 48.56679 9.37020 24829 ft 470 kts 310°
2026-05-05 17:14 48.58686 9.33149 24832 ft 467 kts 302°
2026-05-05 17:14 48.60667 9.29263 24825 ft 469 kts 310°
2026-05-05 17:14 48.63112 9.25972 24824 ft 473 kts 322°
2026-05-05 17:14 48.65917 9.23351 24824 ft 475 kts 331°
2026-05-05 17:15 48.68937 9.21301 24819 ft 476 kts 335°
2026-05-05 17:15 48.71981 9.19319 24822 ft 476 kts 335°
2026-05-05 17:15 48.75010 9.17305 24839 ft 476 kts 335°
2026-05-05 17:15 48.78036 9.15270 24838 ft 475 kts 334°
2026-05-05 17:16 48.81057 9.13231 24840 ft 475 kts 334°
2026-05-05 17:16 48.84055 9.11263 24835 ft 476 kts 338°
2026-05-05 17:16 48.87227 9.09840 24832 ft 477 kts 347°
2026-05-05 17:16 48.90514 9.09162 24828 ft 477 kts 356°
2026-05-05 17:17 48.93833 9.09225 24824 ft 478 kts
2026-05-05 17:17 48.97146 9.09699 24820 ft 478 kts
2026-05-05 17:17 49.00456 9.10173 24817 ft 478 kts
2026-05-05 17:17 49.03767 9.10646 24815 ft 478 kts
2026-05-05 17:18 49.07073 9.11118 24820 ft 478 kts
2026-05-05 17:18 49.10383 9.11594 24817 ft 477 kts
2026-05-05 17:18 49.13687 9.12071 24816 ft 477 kts
2026-05-05 17:18 49.17000 9.12545 24811 ft 477 kts
2026-05-05 17:19 49.20313 9.13020 24811 ft 478 kts
2026-05-05 17:19 49.23621 9.13496 24814 ft 478 kts
2026-05-05 17:19 49.26941 9.13975 24814 ft 478 kts
2026-05-05 17:19 49.30178 9.14434 24554 ft 467 kts
2026-05-05 17:20 49.33360 9.14878 24227 ft 452 kts
2026-05-05 17:20 49.36491 9.15316 23891 ft 440 kts
2026-05-05 17:20 49.39499 9.15744 23563 ft 429 kts
2026-05-05 17:20 49.42402 9.16164 23214 ft 420 kts
2026-05-05 17:21 49.45286 9.16579 22829 ft 413 kts
2026-05-05 17:21 49.48126 9.16988 22449 ft 406 kts
2026-05-05 17:21 49.50950 9.17396 22070 ft 400 kts
2026-05-05 17:22 49.56384 9.18177 21339 ft 388 kts
2026-05-05 17:22 49.59052 9.18561 20978 ft 382 kts
2026-05-05 17:22 49.61669 9.19056 20623 ft 376 kts 11°
2026-05-05 17:22 49.64168 9.20138 20272 ft 370 kts 21°
2026-05-05 17:23 49.66474 9.21799 19926 ft 364 kts 31°
2026-05-05 17:23 49.68548 9.23972 19605 ft 357 kts 40°
2026-05-05 17:23 49.70362 9.26535 19363 ft 350 kts 44°
2026-05-05 17:23 49.72284 9.28833 19123 ft 349 kts 32°
2026-05-05 17:24 49.74428 9.30564 18880 ft 348 kts 22°
2026-05-05 17:24 49.76719 9.31757 18643 ft 347 kts 13°
2026-05-05 17:24 49.79084 9.32461 18409 ft 346 kts
2026-05-05 17:24 49.81477 9.32394 18173 ft 343 kts 349°
2026-05-05 17:25 49.83752 9.31372 17913 ft 341 kts 334°
2026-05-05 17:25 49.84438 9.30840 17821 ft 340 kts 328°
2026-05-05 17:25 49.87571 9.26178 17322 ft 332 kts 298°
2026-05-05 17:25 49.88512 9.22953 17058 ft 327 kts 284°
2026-05-05 17:26 49.89154 9.19586 16800 ft 326 kts 283°
2026-05-05 17:26 49.89790 9.16224 16523 ft 324 kts 283°
2026-05-05 17:26 49.90427 9.12870 16140 ft 323 kts 284°
2026-05-05 17:26 49.91061 9.09530 15771 ft 322 kts 284°
2026-05-05 17:27 49.91690 9.06207 15396 ft 320 kts 284°
2026-05-05 17:27 49.92314 9.02904 15026 ft 318 kts 284°
2026-05-05 17:27 49.92939 8.99606 14660 ft 317 kts 284°
2026-05-05 17:27 49.93558 8.96338 14299 ft 315 kts 284°
2026-05-05 17:28 49.94175 8.93087 13940 ft 313 kts 285°
2026-05-05 17:28 49.95175 8.90092 13578 ft 316 kts 308°
2026-05-05 17:28 49.96860 8.88004 13170 ft 308 kts 333°
2026-05-05 17:28 49.98851 8.86954 12787 ft 298 kts 343°
2026-05-05 17:29 50.00825 8.86151 12395 ft 288 kts 344°
2026-05-05 17:29 50.02738 8.85400 12012 ft 280 kts 344°
2026-05-05 17:29 50.04616 8.84666 11870 ft 275 kts 344°
2026-05-05 17:29 50.06470 8.83944 11828 ft 274 kts 344°
2026-05-05 17:30 50.07692 8.83468 11830 ft 274 kts 344°
2026-05-05 17:30 50.09547 8.82736 11834 ft 276 kts 344°
2026-05-05 17:30 50.11406 8.81965 11833 ft 277 kts 344°
2026-05-05 17:30 50.13265 8.81187 11833 ft 277 kts 344°
2026-05-05 17:31 50.15727 8.80150 11832 ft 277 kts 344°
2026-05-05 17:31 50.17587 8.79369 11831 ft 277 kts 344°
2026-05-05 17:31 50.18845 8.78841 11830 ft 276 kts 344°
2026-05-05 17:31 50.20684 8.78096 11828 ft 277 kts 349°
2026-05-05 17:32 50.22596 8.78156 11610 ft 276 kts 17°
2026-05-05 17:32 50.24267 8.79534 11361 ft 272 kts 40°
2026-05-05 17:32 50.25704 8.81441 11111 ft 271 kts 43°
2026-05-05 17:32 50.27021 8.83522 10852 ft 267 kts 59°
2026-05-05 17:33 50.27809 8.86119 10541 ft 263 kts 72°
2026-05-05 17:33 50.28420 8.88819 10200 ft 264 kts 73°
2026-05-05 17:33 50.28965 8.91559 9859 ft 263 kts 83°
2026-05-05 17:33 50.28843 8.94338 9505 ft 255 kts 113°
2026-05-05 17:34 50.27879 8.96586 9131 ft 248 kts 143°
2026-05-05 17:34 50.26363 8.97735 8746 ft 242 kts 169°
2026-05-05 17:34 50.24716 8.98177 8338 ft 239 kts 173°
2026-05-05 17:34 50.23073 8.98516 7928 ft 237 kts 174°
2026-05-05 17:35 50.21444 8.98838 7526 ft 236 kts 174°
2026-05-05 17:35 50.19819 8.99154 7170 ft 235 kts 174°
2026-05-05 17:35 50.18201 8.99394 6823 ft 232 kts 184°
2026-05-05 17:35 50.16650 8.98817 6754 ft 231 kts 205°
2026-05-05 17:36 50.15342 8.97384 6589 ft 232 kts 226°
2026-05-05 17:36 50.14484 8.95269 6329 ft 231 kts 247°
2026-05-05 17:36 50.13934 8.92935 6010 ft 228 kts 249°
2026-05-05 17:36 50.13398 8.90619 5686 ft 226 kts 248°
2026-05-05 17:37 50.12870 8.88362 5360 ft 216 kts 249°
2026-05-05 17:37 50.12365 8.86214 5060 ft 206 kts 248°
2026-05-05 17:37 50.11885 8.84175 4782 ft 195 kts 249°
2026-05-05 17:37 50.11434 8.82257 4511 ft 187 kts 249°
2026-05-05 17:38 50.10996 8.80403 4251 ft 180 kts 249°
2026-05-05 17:38 50.10568 8.78591 4030 ft 176 kts 249°
2026-05-05 17:38 50.10150 8.76820 3757 ft 172 kts 249°
2026-05-05 17:38 50.09739 8.75080 3503 ft 170 kts 249°
2026-05-05 17:39 50.09330 8.73354 3255 ft 170 kts 250°
2026-05-05 17:39 50.08922 8.71628 3009 ft 170 kts 250°
2026-05-05 17:39 50.08514 8.69904 2785 ft 169 kts 250°
2026-05-05 17:39 50.08108 8.68192 2538 ft 168 kts 250°
2026-05-05 17:40 50.07704 8.66489 2298 ft 166 kts 250°
2026-05-05 17:40 50.07322 8.64881 2062 ft 151 kts 250°
2026-05-05 17:40 50.06976 8.63426 1868 ft 137 kts 250°
2026-05-05 17:40 50.06653 8.62070 1674 ft 133 kts 251°
2026-05-05 17:41 50.06335 8.60733 1488 ft 131 kts 250°
2026-05-05 17:41 50.06020 8.59407 1293 ft 131 kts 250°
2026-05-05 17:41 50.05703 8.58076 1096 ft 131 kts 250°
2026-05-05 17:41 50.05388 8.56757 900 ft 132 kts 250°
2026-05-05 17:42 50.05069 8.55419 722 ft 133 kts 250°
2026-05-05 17:42 50.04747 8.54067 511 ft 133 kts 249°
2026-05-05 17:42 50.04432 8.52737 356 ft 123 kts 249°
2026-05-05 17:42 50.04179 8.51687 334 ft 80 kts 249°
2026-05-05 17:43 50.04050 8.51166 328 ft 37 kts 244°
2026-05-05 17:43 50.03912 8.50925 326 ft 15 kts 220°
2026-05-05 17:43 50.03838 8.50839 328 ft 12 kts 199°
2026-05-05 17:43 50.03783 8.50881 331 ft 11 kts 117°
2026-05-05 17:44 50.03810 8.51042 332 ft 20 kts 70°
2026-05-05 17:44 50.03864 8.51269 334 ft 22 kts 70°
2026-05-05 17:44 50.03918 8.51495 334 ft 24 kts 70°
2026-05-05 17:44 50.03982 8.51761 334 ft 27 kts 70°
2026-05-05 17:45 50.04044 8.52020 336 ft 25 kts 69°
2026-05-05 17:45 50.04107 8.52284 349 ft 27 kts 69°
2026-05-05 17:45 50.04176 8.52571 351 ft 30 kts 69°
2026-05-05 17:45 50.04246 8.52865 358 ft 28 kts 70°
2026-05-05 17:46 50.04322 8.53183 360 ft 34 kts 70°
2026-05-05 17:46 50.04395 8.53523 375 ft 30 kts 81°
2026-05-05 17:46 50.04417 8.53847 375 ft 31 kts 84°
2026-05-05 17:46 50.04438 8.54171 375 ft 29 kts 84°
2026-05-05 17:47 50.04450 8.54480 369 ft 29 kts 97°
2026-05-05 17:47 50.04419 8.54620 367 ft 0 kts 119°
2026-05-05 17:48 50.04413 8.54634 364 ft 6 kts 121°
2026-05-05 17:48 50.04356 8.54733 360 ft 17 kts 142°
2026-05-05 17:48 50.04228 8.54821 353 ft 22 kts 161°
2026-05-05 17:49 50.04094 8.54896 354 ft 15 kts 160°
2026-05-05 17:49 50.04080 8.54904 351 ft 0 kts 160°
2026-05-05 17:49 50.04073 8.54908 356 ft 3 kts 160°
2026-05-05 17:50 50.04038 8.54927 357 ft 7 kts 159°
2026-05-05 17:50 50.03979 8.54964 356 ft 12 kts 158°
2026-05-05 17:50 50.03880 8.55026 354 ft 18 kts 150°
2026-05-05 17:50 50.03860 8.55162 352 ft 13 kts 68°
2026-05-05 17:51 50.03896 8.55309 355 ft 16 kts 69°
2026-05-05 17:51 50.03937 8.55483 350 ft 18 kts 71°
2026-05-05 17:51 50.03982 8.55676 354 ft 19 kts 69°
2026-05-05 17:51 50.04031 8.55878 357 ft 21 kts 70°
2026-05-05 17:52 50.04083 8.56096 359 ft 22 kts 70°
2026-05-05 17:52 50.04139 8.56327 354 ft 23 kts 70°
2026-05-05 17:52 50.04194 8.56554 360 ft 20 kts 68°
2026-05-05 17:52 50.04220 8.56664 364 ft 0 kts 70°
2026-05-05 17:53 50.04221 8.56671 364 ft 3 kts 69°
2026-05-05 17:53 50.04236 8.56729 358 ft 9 kts 70°
2026-05-05 17:54 50.04262 8.56844 363 ft 14 kts 69°
2026-05-05 17:54 50.04303 8.57017 362 ft 20 kts 71°
2026-05-05 17:54 50.04355 8.57241 361 ft 24 kts 70°
2026-05-05 17:54 50.04419 8.57506 364 ft 27 kts 71°
2026-05-05 17:55 50.04485 8.57774 368 ft 26 kts 71°
2026-05-05 17:55 50.04538 8.58003 365 ft 13 kts 69°
2026-05-05 17:55 50.04574 8.58146 365 ft 15 kts 69°
2026-05-05 17:55 50.04609 8.58293 369 ft 14 kts 71°
2026-05-05 17:56 50.04644 8.58442 374 ft 16 kts 69°
2026-05-05 17:56 50.04682 8.58604 371 ft 6 kts 69°
2026-05-05 17:56 50.04691 8.58641 370 ft 1 kts 69°
2026-05-05 17:56 50.04693 8.58650 371 ft 3 kts 69°
2026-05-05 17:57 50.04715 8.58730 369 ft 13 kts 67°
2026-05-05 17:57 50.04757 8.58898 372 ft 20 kts 68°
2026-05-05 17:57 50.04809 8.59073 368 ft 8 kts 34°
2026-05-05 17:57 50.04859 8.59058 367 ft 7 kts 340°